Location: *
(50.8667°S, 179.2667°W)
Time: 19:52:21
(UTC+00:00)

USA 267 - Pass Details

Date: 02 October 2023
Orbit: 1102 x 1105 km, 123.0° (Epoch: 07 December)

Event Time Altitude Azimuth Distance (km) Brightness Sun altitude
Rises 15:20:01 0° 122° (ESE) 3,952 7.9 -19.0°
Reaches altitude 10° 15:22:32 10° 120° (ESE) 2,991 6.8 -18.7°
Maximum altitude 15:29:10 75° 34° (NE) 1,156 3.3 -17.8°
Enters shadow 15:33:20 25° 312° (NW) 2,091 4.1 -17.2°
